User: anonymous   Login
Location: Caltech
(34.1382°N, 118.1253°W)
Time: 21:53:04
(UTC-08:00)
Language:

Cosmos 2219 Rocket - Orbit

View from above orbital plane
View from above orbital plane
View from above satellite
View from above satellite

Ground track
Ground track

The orbit data is extracted from the following two-line orbital elements,

1 22220U 92076B   17021.15165278  .00000116  00000-0  82412-4 0  9997
2 22220  70.9987   8.7501 0011483 146.1821 287.3503 14.16409274249956
Epoch (UTC): 21 January 2017 03:38:22
Eccentricity: 0.0011483
inclination: 70.9987°
perigee height: 829 km
apogee height: 846 km
right ascension of ascending node: 8.7501°
argument of perigee: 146.1821°
revolutions per day: 14.16409274
mean anomaly at epoch: 287.3503°
orbit number at epoch: 24995

The dashed part of the orbit path shows where the satellite is in the earth's shadow,  

DLR